STARLINK-3074 (49170 NORAD) Tracking and Keplerian Element Data

This shows tracking and keplerian element data for the satellite.

Feedback or suggestion? Click here.




ElementValue
Catalog49170
NameSTARLINK-3074
Epoch Orbit696
Epoch Day300.83334491
Epoch Year2021
RAAN3.9411
Inclination70.0009
Eccentricity0.000374
Argument of Perigee290.883
Mean Anonmoly107.4938
Mean Motion15.6973736
Decay Rate-0.00032394
L11 49170U 21082AS 21300.83334491 -.00032394 00000-0 -27074-3 0 9991
L22 49170 70.0009 3.9411 0003740 290.8830 107.4938 15.69737360 6961

Live tracking and technical data element details for STARLINK-3074 (NORAD 49170). STARLINK-3074 can be tracked NOW for your location showing map with azimuth and elevation plus other details from your city location.

Track the satellite on the map from your city or location and see movement details for azimuth, elevation, latitude, longitude, range, height, and movement on the map or in text.







IsCatalogInMostPopularTable: catalog: 49170, numindb: 18
Update: records affected: 1



GetName: 49170 STARLINK-3074

Hit Count: updated at: Thu, 28 Oct 2021 11:13:17 GMT